www.pogodaiklimat.ru

Погода и климат >> Архив погоды >> Норвегия >> Хаммерфест аэропорт


ПОГОДА в Хаммерфест аэропорту

  • Прогноз погоды в Хаммерфест аэропорту
  • Монитор погоды в Хаммерфест аэропорту

АРХИВ ПОГОДЫ в Хаммерфест аэропорту

Время (UTC), дата Ветер
(напр.,м/с)
 
Видим.   Явления Облачность Т
(С)
Тd
(С)
f
(%)
Тe
(С)
Тes
(С)
Комфортность P
(гПа)
Po
(гПа)
Тmin
(С)
Tmax
(С)
R
(мм)
R24
(мм)
S
(см)
19 16.03 ЮЗ 12
{15}
н/о н/о -2.6 -4.5 87 -12 -12 995.1 985.2 0.2
20 16.03 ЮЗ 11
{15}
н/о н/о -2.2 -5.7 77 -11 -11 995.1 985.2
21 16.03 ЮЗ 9
{15}
н/о н/о -2.0 -6.5 71 -10 -10 995.4 985.5 0.2
22 16.03 ЮЗ 11
{15}
н/о н/о -1.9 -5.9 74 -11 -11 995.2 985.2
23 16.03 ЮЗ 11
{14}
н/о н/о -1.7 -5.9 73 -11 -11 995.3 985.4 0.2
00 17.03 ЮЗ 11
{16}
н/о н/о -1.4 -5.1 76 -10 -10 995.9 986.0
01 17.03 З 5
{14}
н/о н/о -2.5 -3.4 94 -9 -9 996.6 986.6 0.2
02 17.03 З 7
{13}
н/о н/о -2.2 -3.3 92 -10 -10 996.9 987.0
03 17.03 З 8
{12}
н/о н/о -2.2 -2.9 95 -11 -11 997.2 987.3 0.3
04 17.03 З 7
{13}
н/о н/о -1.6 -2.3 95 -9 -9 998.0 988.0 0.3
05 17.03 С 8
{12}
н/о н/о -1.6 -5.0 78 -9 -9 998.9 989.0 0.2
06 17.03 СЗ 9
{14}
н/о н/о -2.4 -6.1 76 -11 -11 1000.0 990.1 -2.9 -1.3 2
07 17.03 СЗ 7
{12}
н/о н/о -2.6 -6.3 76 -10 -10 1001.3 991.3 0.4
08 17.03 СЗ 7
{10}
н/о н/о -2.7 -6.5 75 -10 -10 1002.2 992.2 0.1
09 17.03 С 5
{11}
н/о н/о -2.8 -8.2 66 -9 -9 1003.1 993.1
10 17.03 С 4
{9}
н/о н/о -3.0 -7.8 69 -9 -9 1004.0 994.0
11 17.03
{10}
н/о н/о -2.9 -8.6 65 1004.6 994.5
12 17.03 С 4
{12}
н/о н/о -3.0 -8.0 68 -9 -9 1005.1 995.1
13 17.03 С 3
{8}
н/о н/о -3.1 -7.6 71 -8 -8 1005.7 995.7
14 17.03 С 5
{8}
н/о н/о -3.0 -8.2 67 -9 -9 1006.2 996.2
15 17.03 С 7
{8}
н/о н/о -3.8 -9.1 67 -12 -12 1006.8 996.6
16 17.03 С 6
{8}
н/о н/о -4.1 -8.7 70 -11 -11 1007.2 997.1
17 17.03 СВ 5
{7}
н/о н/о -5.0 -9.4 71 -12 -12 1007.8 997.6
18 17.03 С 5
{8}
н/о н/о -3.9 -8.5 70 -11 -11 1008.0 997.9 -5.0 -2.3 0.5
19 17.03 СВ 4
{8}
н/о н/о -4.1 -8.7 70 -10 -10 1008.4 998.3
20 17.03 В 3
{7}
н/о н/о -3.8 -8.6 69 -9 -9 1008.6 998.5
21 17.03 В 4
{6}
н/о н/о -4.8 -9.2 71 -11 -11 1008.9 998.7
22 17.03 В 3
{5}
н/о н/о -5.6 -9.8 72 -11 -11 1009.1 998.9
23 17.03 В 4
{6}
н/о н/о -5.5 -9.9 71 -12 -12 1009.3 999.1
00 18.03 СВ 3
{8}
н/о н/о -6.5 -10.6 73 -12 -12 1009.3 999.0
01 18.03 В 3
{4}
н/о н/о -5.0 -9.4 71 -10 -10 1009.3 999.1
02 18.03 В 4
{6}
н/о н/о -6.0 -10.1 73 -12 -12 1009.4 999.2
03 18.03 В 5
{8}
н/о н/о -5.2 -9.6 71 -12 -12 1009.2 999.0
04 18.03 В 5
{8}
н/о н/о -5.3 -9.7 71 -12 -12 1009.1 998.9
05 18.03 В 6
{9}
н/о н/о -5.8 -10.5 69 -13 -13 1009.3 999.1
06 18.03 В 3
{9}
н/о н/о -6.6 -10.8 72 -12 -12 1009.1 998.8 -7.3 -3.7
07 18.03 В 4
{6}
н/о н/о -4.5 -9.6 68 -11 -11 1009.2 999.0
08 18.03 В 6
{9}
н/о н/о -4.1 -9.2 68 -11 -11 1009.1 999.0
09 18.03 В 5
{8}
н/о н/о -4.4 -9.5 68 -11 -11 1008.9 998.7
10 18.03 В 5
{8}
н/о н/о -4.2 -9.2 68 -11 -11 1008.4 998.2
11 18.03 В 6
{8}
н/о н/о -3.7 -8.3 70 -11 -11 1008.0 997.9
12 18.03 В 6
{9}
н/о н/о -2.8 -7.8 68 -10 -10 1007.5 997.4
13 18.03 В 7
{10}
н/о н/о -3.1 -7.8 70 -11 -11 1007.3 997.2
14 18.03 В 7
{11}
н/о н/о -3.0 -7.5 71 -11 -11 1006.9 996.9
15 18.03 В 6
{11}
н/о н/о -3.1 -7.1 74 -10 -10 1006.9 996.8
16 18.03 СВ 6
{9}
н/о н/о -4.5 -7.7 78 -12 -12 1007.0 996.9
17 18.03 СВ 5
{9}
н/о н/о -4.8 -7.5 81 -12 -12 1007.2 997.1
18 18.03 СВ 5
{11}
н/о н/о -5.3 -7.6 84 -12 -12 1007.3 997.2 -6.9 -2.8
19 18.03 СВ 4
{6}
н/о н/о -4.5 -6.9 83 -11 -11 1007.3 997.2
20 18.03 СВ 3
{5}
н/о н/о -5.8 -8.2 83 -11 -11 1007.7 997.5
21 18.03 СВ 2
{5}
н/о н/о -7.6 -10.3 81 -12 -12 1008.0 997.8
22 18.03 С 1
{3}
н/о н/о -5.6 -7.9 84 -8 -8 1008.2 998.0
23 18.03 штиль 0
{3}
н/о н/о -6.4 -9.0 82 -7 -7 1008.5 998.2
00 19.03 СВ 1
{6}
н/о н/о -6.8 -8.7 86 -9 -9 1008.5 998.3
01 19.03 штиль 0
{2}
н/о н/о -5.2 -6.7 89 -6 -6 1008.9 998.7
02 19.03 Ю 2
{3}
н/о н/о -5.3 -7.0 88 -10 -10 1009.2 999.0
03 19.03 СВ 1
{2}
н/о н/о -5.7 -7.4 88 -8 -8 1009.5 999.3
04 19.03 СВ 1
{2}
н/о н/о -3.4 -5.3 87 -6 -6 1009.6 999.5
05 19.03 штиль 0
{1}
н/о н/о -3.1 -4.6 89 -4 -4 1010.1 999.9
06 19.03 Ю 1
{3}
н/о н/о -2.4 -4.6 85 -5 -5 1010.2 1000.1 -7.9 -2.3
07 19.03 Ю 3
{5}
н/о н/о -1.5 -4.0 83 -6 -6 1010.1 1000.0
08 19.03 ЮЗ 4
{6}
н/о н/о -1.1 -3.8 82 -7 -7 1010.2 1000.1
09 19.03 ЮЗ 5
{7}
н/о н/о -0.9 -3.4 83 -7 -7 1010.4 1000.3
10 19.03 ЮЗ 5
{8}
н/о н/о -0.1 -4.2 74 -6 -6 1010.5 1000.5
11 19.03 ЮЗ 6
{7}
н/о н/о 0.0 -3.9 75 -6 -6 1010.6 1000.5
12 19.03 Ю 4
{8}
н/о н/о +0.2 -4.4 71 -5 -5 1010.7 1000.7
13 19.03 Ю 3
{6}
н/о н/о +0.3 -4.9 68 -4 -4 1010.5 1000.5
14 19.03 Ю 2
{4}
н/о н/о +0.5 -4.9 67 -3 -3 1010.4 1000.4
15 19.03 Ю 3
{5}
н/о н/о -0.2 -4.6 72 -5 -5 1010.3 1000.3
16 19.03 Ю 4
{8}
н/о н/о -0.6 -4.7 74 -6 -6 1010.0 1000.0
17 19.03 Ю 5
{9}
н/о н/о -0.2 -5.1 70 -6 -6 1009.3 999.3
18 19.03 Ю 6
{10}
н/о н/о -0.4 -5.7 67 -7 -7 1008.8 998.8 -2.3 +1.0
19 19.03 Ю 5
{10}
н/о н/о 0.0 -5.9 64 -6 -6 1008.2 998.2 0.2
20 19.03 Ю 6
{10}
н/о н/о +0.2 -5.4 66 -6 -6 1007.5 997.6
21 19.03 Ю 5
{9}
н/о н/о +0.4 -5.8 63 -5 -5 1006.4 996.5
22 19.03 Ю 3
{9}
н/о н/о +0.5 -5.5 64 -4 -4 1005.7 995.8
23 19.03 В 4
{8}
н/о н/о -0.1 -5.4 67 -5 -5 1004.9 994.9
00 20.03 Ю 5
{10}
н/о н/о +1.8 -7.2 51 -3 -3 1003.2 993.3
01 20.03 Ю 6
{11}
н/о н/о +0.4 -7.5 55 -6 -6 1002.4 992.4
02 20.03 Ю 7
{12}
н/о н/о -0.2 -7.0 60 -7 -7 1001.5 991.6
03 20.03 Ю 8
{13}
н/о н/о -0.1 -7.0 60 -7 -7 999.9 990.0
04 20.03 Ю 8
{15}
н/о н/о -0.2 -7.7 57 -7 -7 998.7 988.8 0.1
05 20.03 Ю 10
{18}
н/о н/о -0.6 -7.4 60 -8 -8 997.2 987.3 0.3
06 20.03 Ю 10
{18}
н/о н/о 0.0 -6.9 60 -8 -8 996.1 986.3 -0.8 +1.9 0.9
07 20.03 Ю 9
{15}
н/о н/о 0.0 -6.7 61 -7 -7 995.9 986.1 0.3
08 20.03 Ю 8
{14}
н/о н/о -0.2 -6.6 62 -7 -7 995.9 986.0 0.1
09 20.03 Ю 6
{14}
н/о н/о +0.1 -6.7 60 -6 -6 996.4 986.5
10 20.03 Ю 4
{8}
н/о н/о +0.3 -5.5 65 -5 -5 996.6 986.8
11 20.03 Ю 6
{8}
н/о н/о -0.9 -3.3 84 -8 -8 997.2 987.3
12 20.03 Ю 4
{15}
н/о н/о -1.1 -2.6 90 -7 -7 997.4 987.5 0.2
13 20.03 Ю 4
{8}
н/о н/о -1.0 -1.9 94 -7 -7 997.6 987.7 0.2
14 20.03 Ю 7
{9}
н/о н/о -0.5 -1.6 92 -8 -8 997.8 987.9 0.2
15 20.03 ЮЗ 4
{7}
н/о н/о +0.1 -1.9 86 -5 -5 997.9 988.0 0.2
16 20.03 ЮЗ 5
{7}
н/о н/о +0.7 -2.2 81 -5 -5 998.1 988.3
17 20.03 ЮЗ 5
{7}
н/о н/о +1.1 -1.9 80 -5 -5 998.2 988.4
18 20.03 ЮЗ 5
{9}
н/о н/о +1.2 -1.5 82 -5 -5 998.3 988.5 -1.4 +1.4 1
19 20.03 ЮЗ 5
{9}
н/о н/о +1.6 -1.5 80 -4 -4 998.4 988.5
20 20.03 ЮЗ 4
{7}
н/о н/о +0.9 -2.1 80 -4 -4 998.2 988.4
21 20.03 ЮЗ 5
{6}
н/о н/о +0.6 -2.3 81 -5 -5 998.5 988.6
22 20.03 ЮВ 1
{6}
н/о н/о +0.8 -2.9 76 -1 -1 998.4 988.6
23 20.03 Ю 4
{5}
н/о н/о +0.5 -4.1 71 -5 -5 998.5 988.7
00 21.03 Ю 5
{9}
н/о н/о +1.4 -4.0 67 -4 -4 998.2 988.4
01 21.03 Ю 3
{7}
н/о н/о +2.1 -4.2 63 -2 -2 997.9 988.1
02 21.03 Ю 6
{9}
н/о н/о +1.9 -4.8 61 -4 -4 997.8 987.9
03 21.03 Ю 5
{8}
н/о н/о +1.1 -4.3 67 -4 -4 997.5 987.7
04 21.03 Ю 4
{7}
н/о н/о +1.6 -3.8 67 -3 -3 997.4 987.6
05 21.03 ЮЗ 5
{12}
н/о н/о +1.1 -3.4 72 -4 -4 998.0 988.2
06 21.03 Ю 3
{12}
н/о н/о +0.1 -1.5 89 -5 -5 997.4 987.5 +0.1 +2.3
07 21.03 ЮЗ 6
{8}
н/о н/о +0.6 -1.1 88 -6 -6 997.1 987.2
08 21.03 ЮЗ 5
{9}
н/о н/о +2.0 -1.9 75 -3 -3 996.7 986.9 0.1
09 21.03 ЮЗ 4
{7}
н/о н/о +1.8 -2.1 75 -3 -3 996.5 986.7
10 21.03 Ю 5
{7}
н/о н/о +2.4 -3.1 67 -3 -3 995.9 986.1
11 21.03 Ю 4
{7}
н/о н/о +2.7 -3.6 63 -2 -2 995.8 986.1
12 21.03 Ю 4
{9}
н/о н/о +3.1 -3.7 61 -1 -1 995.4 985.7
13 21.03 Ю 3
{6}
н/о н/о +3.0 -3.7 61 -1 -1 994.9 985.2
14 21.03 СВ 2
{5}
н/о н/о +1.7 -5.4 59 -1 -1 994.8 985.0
15 21.03 СВ 2
{5}
н/о н/о +0.4 -5.8 63 -3 -3 994.3 984.5
17 21.03 В 1
{3}
н/о н/о -1.8 -6.3 71 -4 -4 995.3 985.4
18 21.03 С 1
{6}
н/о н/о -1.1 -6.4 67 -3 -3 996.5 986.6 -3.4 +3.9 0.1
19 21.03 ЮЗ 1
{3}
н/о н/о -0.9 -5.5 71 -3 -3 997.3 987.4
20 21.03 З 14
{21}
н/о н/о 0.0 -0.6 96 -10 -10 999.5 989.6 0.2
21 21.03 З 13
{19}
н/о н/о -0.1 -3.4 78 -9 -9 1000.7 990.7 0.7
22 21.03 З 14
{21}
н/о н/о +0.3 -4.9 68 -9 -9 1001.9 992.0
23 21.03 З 11
{18}
н/о н/о +0.3 -5.7 64 -8 -8 1003.0 993.1 0.2
01 22.03 З 11
{16}
н/о н/о +0.5 -3.7 73 -8 -8 1004.3 994.3
02 22.03 З 14
{20}
н/о н/о 0.0 -2.5 83 -9 -9 1005.0 995.0 0.2
03 22.03 З 13
{22}
н/о н/о +0.5 -3.2 76 -8 -8 1004.6 994.6 0.5
04 22.03 ЮЗ 11
{22}
н/о н/о -0.6 -1.2 96 -10 -10 1005.0 995.0 0.7
05 22.03 З 17
{22}
н/о н/о -0.1 -1.4 91 -10 -10 1005.4 995.4 0.2
06 22.03 ЮЗ 13
{23}
н/о н/о -0.3 -1.6 91 -10 -10 1005.8 995.9 -2.6 +0.8 3
07 22.03 З 16
{23}
н/о н/о -0.6 -1.3 95 -11 -11 1006.2 996.2 0.6
08 22.03 ЮЗ 19
{26}
н/о н/о +0.3 -3.6 75 -10 -10 1006.7 996.7 0.5
09 22.03 ЮЗ 16
{24}
н/о н/о +0.4 -4.6 69 -9 -9 1007.3 997.4 0.4
10 22.03 З 15
{26}
н/о н/о +0.3 -4.5 70 -9 -9 1007.9 997.9 0.4
11 22.03 З 16
{21}
н/о н/о +0.4 -5.4 65 -9 -9 1007.8 997.8 0.3
12 22.03 ЮЗ 15
{26}
н/о н/о -1.0 -2.1 92 -11 -11 1007.8 997.8 0.1
13 22.03 З 16
{21}
н/о н/о +1.5 -6.3 56 -7 -7 1007.0 997.1
14 22.03 ЮЗ 13
{20}
н/о н/о +1.5 -5.8 58 -6 -6 1006.6 996.7
15 22.03 ЮЗ 11
{16}
н/о н/о +1.3 -4.7 64 -6 -6 1006.2 996.3
16 22.03 ЮЗ 14
{16}
н/о н/о +0.5 -2.9 78 -8 -8 1005.5 995.6
17 22.03 Ю 6
{14}
н/о н/о +0.9 -4.1 69 -5 -5 1004.1 994.2
18 22.03 Ю 5
{21}
н/о н/о +0.7 -5.3 64 -5 -5 1002.5 992.6 -1.1 +1.8 2
19 22.03 Ю 6
{9}
н/о н/о +0.7 -5.5 63 -5 -5 1000.6 990.7
20 22.03 Ю 7
{12}
н/о н/о +0.2 -6.8 59 -6 -6 998.4 988.5
21 22.03 Ю 8
{12}
н/о н/о +0.6 -5.6 63 -6 -6 996.0 986.2
22 22.03 Ю 9
{14}
н/о н/о +0.6 -4.4 69 -7 -7 993.9 984.1
23 22.03 Ю 7
{14}
н/о н/о +0.3 -4.9 68 -6 -6 992.1 982.3
00 23.03 Ю 7
{14}
н/о н/о +0.7 -3.9 71 -6 -6 990.1 980.3
01 23.03 Ю 6
{11}
н/о н/о +1.1 -2.5 77 -5 -5 989.2 979.4
02 23.03 Ю 7
{12}
н/о н/о +0.9 -1.2 86 -6 -6 987.6 977.9 0.1
03 23.03 Ю 7
{11}
н/о н/о +2.1 -1.1 79 -4 -4 987.0 977.3
04 23.03 Ю 7
{11}
н/о н/о +2.7 -1.6 73 -3 -3 986.1 976.4
05 23.03 Ю 7
{13}
н/о н/о +3.1 -1.8 70 -3 -3 985.2 975.6
06 23.03 Ю 7
{13}
н/о н/о +2.9 -2.2 69 -3 -3 984.5 974.8 0.0 +3.1 0.1
07 23.03 Ю 8
{13}
н/о н/о +3.1 -2.4 67 -3 -3 983.4 973.8
08 23.03 Ю 4
{11}
н/о н/о +3.7 -2.2 65 -0 -0 982.3 972.7
09 23.03 Ю 4
{6}
н/о н/о +4.1 -2.3 63 0 0 981.8 972.2
10 23.03 Ю 5
{10}
н/о н/о +3.9 -2.3 64 -1 -1 981.1 971.5
11 23.03 ЮЗ 3
{9}
н/о н/о +3.8 -2.1 65 0 0 980.6 971.0
12 23.03 ЮЗ 1
{13}
н/о н/о +3.5 -0.9 73 +2 +2 980.4 970.8
13 23.03 СЗ 1
{3}
н/о н/о +3.2 -1.7 70 +2 +2 980.0 970.4
14 23.03 З 4
{8}
н/о н/о +2.4 -0.5 81 -2 -2 980.1 970.5
15 23.03 ЮВ 1
{5}
н/о н/о +2.2 +0.1 86 +1 +1 979.5 969.8 0.1
16 23.03 СВ 1
{3}
н/о н/о +1.3 -1.1 84 -1 -1 978.4 968.8
17 23.03 СВ 4
{4}
н/о н/о +0.5 -2.5 80 -5 -5 978.0 968.4
18 23.03 СВ 2
{8}
н/о н/о +0.7 -3.9 71 -3 -3 977.8 968.1 +0.3 +4.4 0.1

 

Местоположение метеостанции Хаммерфест аэропорт (Норвегия): широта 70.68 долгота 23.38 высота над уровнем моря 81 м.

В архиве по умолчанию представлена погода в Хаммерфест аэропорту за последнюю неделю. Архивные данные за месяц целиком и за предыдущие месяцы, начиная с января 2011 года, Вы можете получить, выбрав интересующий диапазон дат из раскрывающегося списка и нажав кнопку "Ввод!".


*Определитесь, кто Вы:
робот инопланетянин человек

Внимание! Время в таблицах - всемирное. Для получения местного времени необходимо прибавить поправку, которая равна 1 ч.

Смотрите также архив погоды в соседних городах и на ближайших метеорологических станциях:

Погода на Хасвике (Норвегия) (36 км)
Погода в Рогнсундете (Норвегия) (37 км)
Погода в Хасвик аэропорту (Норвегия) (50 км)
Погода на Маяке Fruholmen (Норвегия) (51 км)
Погода в Альта аэропорту (Норвегия) (78 км)
Погода в Банаке (Норвегия) (92 км)
Погода в Хоннигсвог аэропорту (Норвегия) (102 км)
Погода в Суоловуопми-Лулит (Норвегия) (122 км)
Погода в Сёрхьюсен аэропорту (Норвегия) (134 км)
Погода в Карасйоке (Норвегия) (148 км)

Пояснения к столбцам:

Ветер - указаны скорость ветра в м/с - средняя за 10 мин, порывы в срок и между сроками (в фигурных скобках) и направление, откуда дует ветер: С - северный, СВ - северо-восточный, В - восточный, ЮВ - юго-восточный, Ю - южный, ЮЗ - юго-западный, З - западный, СЗ - северо-западный.
Видимость - горизонтальная дальность видимости в метрах или километрах. При видимости от 1 до 10 км при отсутствии осадков обычно наблюдается дымка, при ухудшении видимости до 1 км и менее - туман. В сухую погоду видимость может ухудшаться дымом, пылью или мглою.
Явления - указаны атмосферные явления, наблюдавшиеся в срок или в последний час перед сроком; фигурными скобками обозначены явления, наблюдавшиеся между сроками (за 1-3 часа до срока); квадратными скобками обозначены град или гололедные отложения с указанием их диаметра в мм.
Облачность - указаны через наклонную черту общая и нижняя облачность в баллах и высота нижней границы облаков в метрах; квадратными скобками обозначены формы облаков: Ci - перистые, Cs - перисто-слоистые, Cc - перисто-кучевые, Ac - высококучевые, As - высокослоистые, Sc - слоисто-кучевые, Ns - слоисто-дождевые, Cu - кучевые, Cb - кучево-дождевые. Подробнее классификацию облаков см. в Атласе облаков (PDF).
T - Температура воздуха - температура, измеренная на высоте 2 м над землей.
Td - Температура точки росы - температура, при понижении до которой содержащийся в воздухе водяной пар достигнет насыщения.
f - Относительная влажность воздуха - влажноcть воздуха, измеренная на высоте 2 м над землей.
Te - Эффективная температура - температура, которую ощущает одетый по сезону человек в тени. Характеристика душности погоды. При расчете учитывается влияние влажности воздуха и скорости ветра на теплоощущения человека.
Tes - Эффективная температура на солнце - температура, которую ощущает человек, с поправкой на солнечный нагрев. Характеристика знойности погоды. Зависит от высоты солнца над горизонтом, облачности и скорости ветра. Ночью, в пасмурную погоду, а также при ветре 12 м/с и более поправка равна нулю.
P - Атмосферное давление - приведенное к уровню моря атмосферное давление.
Po - Атмосферное давление - измеренное на уровне метеостанции атмосферное давление.
Tmin - Минимальная температура - минимум температуры воздуха на высоте 2 м над землей.
Tmax - Максимальная температура - максимум температуры воздуха на высоте 2 м над землей.
R - Количество осадков - Количество выпавших осадков за период времени, мм. При наведении курсора мыши на число - период времени, за который выпало указанное количество осадков.
R24 - Количество осадков - Количество выпавших осадков за 24 часа, мм.
S - Снежный покров - Высота снежного покрова, см. При наведении курсора мыши на число - состояние снежного покрова и степень покрытия местности в баллах.